This demonstration page uses our WeatherBlox Daily Observations layout. Learn more.

Left ArrowRight Arrow

Hourly Observations for August 27, 2015

Temp ( °F °C ) Dew Point ( °F °C ) Humidity (%) Winds ( mph kmh ) Pressure ( in mb ) Visibility ( mi km ) Precip ( " mm )
12:15 am 00:15 Clear 72 22 64 18 78 78 SE 13 20 29.91 1013 10 16 0.00 0.00
12:35 am 00:35 Clear 72 22 64 18 78 78 SSE 12 19 29.91 1013 10 16 0.00 0.00
12:55 am 00:55 Clear 72 22 64 18 78 78 SSE 10 17 29.91 1013 10 16 0.00 0.00
1:15 am 01:15 Clear 72 22 64 18 78 78 SSE 10 17 29.91 1013 10 16 0.00 0.00
1:35 am 01:35 Clear 72 22 64 18 78 78 SSE 9 15 29.88 1012 10 16 0.00 0.00
1:55 am 01:55 Clear 70 21 64 18 83 83 SSE 9 15 29.88 1012 10 16 0.00 0.00
2:15 am 02:15 Clear 70 21 64 18 83 83 SSE 9 15 29.88 1012 10 16 0.00 0.00
2:35 am 02:35 Clear 70 21 64 18 83 83 SSE 8 13 29.88 1012 10 16 0.00 0.00
2:55 am 02:55 Clear 70 21 64 18 83 83 SE 8 13 29.88 1012 10 16 0.00 0.00
3:15 am 03:15 Clear 70 21 64 18 83 83 SSE 9 15 29.88 1012 9 14 0.00 0.00
3:35 am 03:35 Clear 70 21 64 18 83 83 SSE 8 13 29.88 1012 8 13 0.00 0.00
3:55 am 03:55 Clear 68 20 64 18 88 88 SSE 8 13 29.88 1012 7 11 0.00 0.00
4:15 am 04:15 Clear 68 20 64 18 88 88 SSE 7 11 29.88 1012 6 10 0.00 0.00
4:35 am 04:35 Clear 68 20 64 18 88 88 SSE 8 13 29.88 1012 5 8 0.00 0.00
4:55 am 04:55 Clear 68 20 64 18 88 88 SSE 8 13 29.88 1012 5 8 0.00 0.00
5:15 am 05:15 Partly Cloudy 68 20 64 18 88 88 SSE 8 13 29.88 1012 4 6 0.00 0.00
5:35 am 05:35 Mostly Cloudy 68 20 64 18 88 88 SSE 8 13 29.85 1011 4 6 0.00 0.00
5:55 am 05:55 Partly Cloudy 66 19 64 18 94 94 SSE 10 17 29.85 1011 4 6 0.00 0.00
6:15 am 06:15 Partly Cloudy 66 19 64 18 94 94 SSE 8 13 29.85 1011 3 5 0.00 0.00
6:35 am 06:35 Clear 66 19 63 17 88 88 SSE 8 13 29.85 1011 3 5 0.00 0.00
6:55 am 06:55 Clear 66 19 64 18 94 94 SSE 6 9 29.85 1011 3 5 0.00 0.00
7:15 am 07:15 Sunny 66 19 63 17 88 88 SE 6 9 29.85 1011 3 4 0.00 0.00
7:35 am 07:35 Sunny 66 19 63 17 88 88 SSE 7 11 29.85 1011 3 4 0.00 0.00
7:55 am 07:55 Sunny 66 19 64 18 94 94 SSE 6 9 29.85 1011 3 5 0.00 0.00
8:15 am 08:15 Sunny 68 20 64 18 88 88 ESE 6 9 29.88 1012 3 5 0.00 0.00
8:35 am 08:35 Sunny 68 20 64 18 88 88 ENE 7 11 29.88 1012 3 5 0.00 0.00
8:55 am 08:55 Sunny 70 21 66 19 88 88 ENE 8 13 29.88 1012 3 5 0.00 0.00
9:15 am 09:15 Mostly Sunny 70 21 66 19 88 88 E 8 13 29.85 1011 4 6 0.00 0.00
9:35 am 09:35 Sunny 72 22 66 19 83 83 E 6 9 29.85 1011 7 11 0.00 0.00
9:55 am 09:55 Sunny 73 23 66 19 78 78 ESE 8 13 29.83 1010 8 13 0.00 0.00
10:15 am 10:15 Sunny 75 24 66 19 74 74 ESE 9 15 29.83 1010 10 16 0.00 0.00
10:35 am 10:35 Sunny 75 24 66 19 74 74 ESE 12 19 29.80 1009 10 16 0.00 0.00
10:55 am 10:55 Sunny 77 25 68 20 74 74 E 12 19 29.80 1009 10 16 0.00 0.00
11:15 am 11:15 Sunny 79 26 68 20 70 70 ESE 14 22 29.80 1009 10 16 0.00 0.00
11:35 am 11:35 Sunny 79 26 68 20 70 70 ESE 13 20 29.83 1010 10 16 0.00 0.00
11:55 am 11:55 Sunny 79 26 70 21 74 74 ESE 15 24 29.83 1010 10 16 0.00 0.00
12:15 pm 12:15 Sunny 81 27 70 21 70 70 SE 15 24 29.77 1008 10 16 0.00 0.00
12:35 pm 12:35 Sunny 79 26 70 21 74 74 ESE 15 24 29.80 1009 10 16 0.00 0.00
12:55 pm 12:55 Sunny 79 26 70 21 74 74 ESE 17 28 29.80 1009 10 16 0.00 0.00
1:15 pm 13:15 Sunny 79 26 70 21 74 74 ESE 16 26 29.80 1009 10 16 0.00 0.00
1:35 pm 13:35 Sunny 81 27 70 21 70 70 SE 15 24 29.77 1008 10 16 0.00 0.00
1:55 pm 13:55 Sunny 81 27 70 21 70 70 SE 13 20 29.77 1008 10 16 0.00 0.00
2:15 pm 14:15 Sunny 81 27 70 21 70 70 SE 13 20 29.74 1007 10 16 0.00 0.00
2:35 pm 14:35 Mostly Sunny 81 27 70 21 70 70 SE 15 24 29.74 1007 10 16 0.00 0.00
2:55 pm 14:55 Mostly Cloudy 81 27 70 21 70 70 SE 12 19 29.77 1008 10 16 0.00 0.00
3:15 pm 15:15 Mostly Cloudy 79 26 70 21 74 74 ESE 16 26 29.77 1008 10 16 0.00 0.00
3:35 pm 15:35 Sunny 81 27 72 22 74 74 ESE 18 30 29.74 1007 10 16 0.00 0.00
3:55 pm 15:55 Sunny 84 29 72 22 66 66 ESE 21 33 29.71 1006 10 16 0.00 0.00
4:15 pm 16:15 Sunny 84 29 72 22 66 66 ESE 18 30 29.71 1006 10 16 0.00 0.00
4:35 pm 16:35 Sunny 88 31 72 22 59 59 ESE 20 31 29.68 1005 10 16 0.00 0.00
4:55 pm 16:55 Sunny 88 31 72 22 59 59 SE 18 30 29.68 1005 10 16 0.00 0.00
5:15 pm 17:15 Sunny 88 31 72 22 59 59 SE 21 33 29.65 1004 10 16 0.00 0.00
5:35 pm 17:35 Sunny 88 31 70 21 55 55 SSE 24 39 29.65 1004 10 16 0.00 0.00
5:55 pm 17:55 Sunny 86 30 70 21 59 59 SE 18 30 29.65 1004 10 16 0.00 0.00
6:15 pm 18:15 Sunny 84 29 66 19 55 55 SE 25 41 29.68 1005 10 16 0.00 0.00
6:35 pm 18:35 Sunny 82 28 64 18 55 55 SE 22 35 29.68 1005 10 16 0.00 0.00
6:55 pm 18:55 Sunny 81 27 64 18 58 58 SSE 24 39 29.68 1005 10 16 0.00 0.00
7:15 pm 19:15 Sunny 79 26 64 18 61 61 SSE 21 33 29.68 1005 10 16 0.00 0.00
7:35 pm 19:35 Sunny 79 26 64 18 61 61 SSE 20 31 29.68 1005 10 16 0.00 0.00
7:55 pm 19:55 Sunny 79 26 64 18 61 61 SSE 18 30 29.68 1005 10 16 0.00 0.00
8:15 pm 20:15 Sunny 77 25 64 18 65 65 SSE 20 31 29.74 1007 10 16 0.00 0.00
8:35 pm 20:35 Clear 75 24 64 18 69 69 SSE 16 26 29.74 1007 10 16 0.00 0.00
8:55 pm 20:55 Clear 75 24 64 18 69 69 SSE 17 28 29.71 1006 10 16 0.00 0.00
9:15 pm 21:15 Clear 75 24 64 18 69 69 S 21 33 29.71 1006 10 16 0.00 0.00
9:35 pm 21:35 Clear 73 23 64 18 74 74 S 16 26 29.71 1006 10 16 0.00 0.00
9:55 pm 21:55 Clear 73 23 63 17 69 69 S 18 30 29.74 1007 10 16 0.00 0.00
10:15 pm 22:15 Clear 73 23 63 17 69 69 S 15 24 29.74 1007 10 16 0.00 0.00
10:35 pm 22:35 Clear 73 23 64 18 74 74 S 16 26 29.74 1007 10 16 0.00 0.00
10:55 pm 22:55 Clear 73 23 64 18 74 74 S 13 20 29.74 1007 10 16 0.00 0.00
11:15 pm 23:15 Clear 72 22 64 18 78 78 SSW 10 17 29.80 1009 10 16 0.00 0.00
11:35 pm 23:35 Clear 72 22 64 18 78 78 SSW 12 19 29.80 1009 10 16 0.00 0.00
11:55 pm 23:55 Clear 72 22 63 17 73 73 SSW 9 15 29.80 1009 10 16 0.00 0.00

Powered by AerisWeather